Weather History for Shirley, NY

Change the Weather History Date:

Thursday, September 26, 2013

  Actual Average (KISP) Record (KISP)
Temperature  
Mean Temperature 58 °F 62 °F  
Max Temperature 69 °F 70 °F 79 °F (1998)
Min Temperature 48 °F 53 °F 40 °F (1987)
Degree Days  
Heating Degree Days 7 4  
Month to date heating degree days 50  
Since 1 July heating degree days 55  
Cooling Degree Days 0 1  
Month to date cooling degree days 87  
Year to date cooling degree days 773  
Growing Degree Days 8 (Base 50)    
Moisture  
Dew Point 52 °F    
Average Humidity 80    
Maximum Humidity 96    
Minimum Humidity 56    
Precipitation  
Precipitation 0.00 in 0.12 in 2.39 in (2008)
Month to date precipitation 3.06  
Year to date precipitation 34.20  
Snow  
Snow 0.00 in 0.00 in - ()
Month to date snowfall 0.0  
Since 1 July snowfall 0.0  
Snow Depth -    
Sea Level Pressure  
Sea Level Pressure 30.03 in    
Wind  
Wind Speed 1 mph (East)    
Max Wind Speed 8 mph    
Max Gust Speed -    
Visibility 10 miles    
Events      
T = Trace of Precipitation, MM = Missing Value Source: NWS Daily Summary

Daily Weather History Graph

Daily Weather History Graph

Search for Another Location

Airport:

Trip Planner

Search our weather history database for the weather conditions in past years. The results will help you decide how hot, cold, wet, or windy it might be!

Date:

Astronomy

Sep. 26, 2013 Rise Set
Actual Time 6:43 AM EDT 6:41 PM EDT
Civil Twilight 6:15 AM EDT 7:08 PM EDT
Nautical Twilight 5:43 AM EDT 7:40 PM EDT
Astronomical Twilight 5:11 AM EDT 8:12 PM EDT
Moon 11:35 PM EDT (9/26) 1:35 PM EDT (9/26)
Length of Visible Light 12h 52m
Length of Day
11h 58m
Waning Gibbous, 55% of the Moon is Illuminated
Sep 26
Waning Gibbous
Sep 26
Last Quarter
Oct 4
New
Oct 11
First Quarter
Oct 18
Full

Hourly Weather History & Observations

Time (EDT) Temp. Dew Point Humidity Pressure Visibility Wind Dir Wind Speed Gust Speed Precip Events Conditions
12:56 AM 50.0 °F 48.9 °F 96% 29.95 in 10.0 mi Calm Calm - N/A   Clear
1:56 AM 51.1 °F 48.9 °F 92% 29.95 in 10.0 mi Calm Calm - N/A   Clear
2:56 AM 51.1 °F 50.0 °F 96% 29.96 in 10.0 mi Calm Calm - N/A   Overcast
3:56 AM 54.0 °F 52.0 °F 93% 29.95 in 10.0 mi Calm Calm - N/A   Overcast
4:56 AM 55.9 °F 53.1 °F 90% 29.96 in 10.0 mi Calm Calm - N/A   Overcast
5:56 AM 59.0 °F 55.9 °F 90% 29.97 in 10.0 mi Variable 3.5 mph - N/A   Overcast
6:56 AM 60.1 °F 57.0 °F 90% 30.00 in 10.0 mi Calm Calm - N/A   Overcast
7:25 AM 60.8 °F 55.4 °F 82% 30.00 in 10.0 mi Calm Calm - N/A   Overcast
7:56 AM 60.1 °F 55.9 °F 86% 30.01 in 10.0 mi Calm Calm - N/A   Overcast
8:26 AM 60.8 °F 55.4 °F 82% 30.02 in 10.0 mi Variable 3.5 mph - N/A   Overcast
8:56 AM 61.0 °F 54.0 °F 78% 30.02 in 10.0 mi Variable 3.5 mph - N/A   Overcast
9:56 AM 63.0 °F 53.1 °F 70% 30.04 in 10.0 mi ENE 3.5 mph - N/A   Overcast
10:56 AM 63.0 °F 53.1 °F 70% 30.05 in 10.0 mi Variable 3.5 mph - N/A   Overcast
11:56 AM 63.0 °F 52.0 °F 67% 30.05 in 10.0 mi Variable 3.5 mph - N/A   Overcast
12:56 PM 64.0 °F 53.1 °F 67% 30.05 in 10.0 mi Calm Calm - N/A   Overcast
1:20 PM 64.4 °F 51.8 °F 64% 30.05 in 10.0 mi NNE 4.6 mph - N/A   Overcast
1:56 PM 64.9 °F 50.0 °F 58% 30.04 in 10.0 mi NE 4.6 mph - N/A   Mostly Cloudy
2:56 PM 66.0 °F 50.0 °F 56% 30.04 in 10.0 mi Calm Calm - N/A   Mostly Cloudy
3:56 PM 63.0 °F 51.1 °F 65% 30.04 in 10.0 mi SE 4.6 mph - N/A   Scattered Clouds
4:56 PM 62.1 °F 51.1 °F 67% 30.05 in 10.0 mi SSE 8.1 mph - N/A   Partly Cloudy
5:56 PM 62.1 °F 51.1 °F 67% 30.06 in 10.0 mi SSE 4.6 mph - N/A   Clear
6:56 PM 57.0 °F 50.0 °F 77% 30.07 in 10.0 mi Calm Calm - N/A   Clear
7:56 PM 55.0 °F 51.1 °F 86% 30.09 in 10.0 mi Calm Calm - N/A   Mostly Cloudy
8:56 PM 54.0 °F 51.1 °F 90% 30.10 in 10.0 mi Calm Calm - N/A   Mostly Cloudy
9:56 PM 52.0 °F 50.0 °F 93% 30.11 in 10.0 mi Calm Calm - N/A   Clear
10:56 PM 50.0 °F 48.0 °F 93% 30.11 in 10.0 mi Calm Calm - N/A   Clear
11:56 PM 48.0 °F 46.0 °F 93% 30.12 in 10.0 mi Calm Calm - N/A   Clear